Train No Train Name From To Distance Stops avg_speed (km/hr)
13008 Udyan Abha Toofan Express Shri Ganganagar Howrah Junction 1980 105 43
A Train's "Departure" Station, "Arrival" Station and "Distance" may vary. Although we have verified some of this data from enquiry.indianrail.gov.in
Train No Start Date (yyyy-mm-dd) Status Delay Time Source
13008 2017-01-17 Late 07 hours 40 minutes Source
13008 2017-01-21 Late 07 hours 18 minutes Source
13008 2017-02-07 Late 08 hours 31 minutes Source
13008 2017-02-15 Late 09 hours 05 minutes Source
13008 2017-02-16 Late 05 hours 36 minutes Source
13008 2017-02-24 Late 08 hours 07 minutes Source
13008 2017-03-01 Late 08 hours 40 minutes Source
13008 2017-03-07 Late 08 hours 50 minutes Source
13008 2017-03-12 Late 05 hours 20 minutes Source
13008 2017-03-15 Late 08 hours 38 minutes Source
13008 2017-03-16 Late 05 hours 28 minutes Source
13008 2017-03-17 Late 05 hours 32 minutes Source
13008 2017-03-18 Late 05 hours 17 minutes Source
13008 2017-03-19 Late 06 hours 50 minutes Source
13008 2017-03-20 Late 06 hours 05 minutes Source
13008 2017-03-21 Late 07 hours 48 minutes Source
13008 2017-03-24 Late 07 hours 30 minutes Source
13008 2017-03-26 Late 07 hours 40 minutes Source
13008 2017-03-27 Late 08 hours 00 minutes Source
13008 2017-03-28 Late 07 hours 50 minutes Source
13008 2017-03-31 Late 05 hours 50 minutes Source
13008 2017-04-01 Late 07 hours 34 minutes Source
13008 2017-04-03 Late 08 hours 10 minutes Source
13008 2017-04-04 Late 09 hours 30 minutes Source
13008 2017-04-05 Late 06 hours 35 minutes Source
13008 2017-04-07 Late 08 hours 06 minutes Source
13008 2017-04-08 Late 06 hours 35 minutes Source
13008 2017-04-09 Late 08 hours 45 minutes Source
13008 2017-04-10 Late 08 hours 10 minutes Source
13008 2017-04-11 Late 08 hours 50 minutes Source
13008 2017-04-16 Late 08 hours 50 minutes Source
13008 2017-04-18 Late 08 hours 12 minutes Source
13008 2017-04-19 Late 05 hours 52 minutes Source
13008 2017-04-22 Late 08 hours 25 minutes Source
13008 2017-04-23 Late 07 hours 15 minutes Source
13008 2017-04-24 Late 09 hours 38 minutes Source
13008 2017-04-25 Late 05 hours 24 minutes Source
13008 2017-04-26 Late 07 hours 15 minutes Source
13008 2017-04-27 Late 06 hours 44 minutes Source
13008 2017-04-28 Late 08 hours 20 minutes Source
13008 2017-04-29 Late 09 hours 25 minutes Source
Page 1 of 1, showing 41 records out of 41 total